Precipitable_Water
0.62 0.56 0.51 0.47 0.44 0.40 0.41 0.44 0.46 0.46 0.43 0.40 0.43 0.41 0.39 0.38 0.35 0.34 0.32 0.30 0.30 0.29
0.52 0.48 0.44 0.43 0.43 0.42 0.44 0.44 0.43 0.42 0.43 0.47 0.46 0.42 0.39 0.33 0.29 0.30 0.28 0.27 0.27 0.24
0.49 0.48 0.47 0.45 0.44 0.45 0.46 0.46 0.45 0.44 0.49 0.44 0.39 0.36 0.32 0.30 0.29 0.26 0.24 0.23 0.22 0.21
0.43 0.42 0.42 0.42 0.44 0.46 0.46 0.47 0.44 0.44 0.44 0.40 0.36 0.34 0.32 0.30 0.27 0.23 0.23 0.23 0.23 0.23
0.36 0.35 0.35 0.40 0.43 0.46 0.41 0.40 0.39 0.37 0.40 0.38 0.34 0.33 0.30 0.28 0.27 0.22 0.23 0.24 0.24 0.24
0.31 0.32 0.33 0.34 0.31 0.31 0.31 0.34 0.37 0.41 0.39 0.34 0.34 0.30 0.31 0.29 0.24 0.24 0.26 0.26 0.24 0.23
0.31 0.30 0.29 0.29 0.30 0.29 0.33 0.37 0.40 0.39 0.36 0.33 0.31 0.33 0.31 0.28 0.26 0.26 0.26 0.25 0.23 0.23
0.30 0.30 0.30 0.29 0.29 0.33 0.38 0.42 0.39 0.38 0.33 0.33 0.33 0.32 0.30 0.28 0.26 0.24 0.23 0.23 0.24 0.24
0.30 0.30 0.30 0.30 0.30 0.34 0.37 0.35 0.36 0.35 0.33 0.33 0.32 0.31 0.28 0.28 0.25 0.24 0.22 0.21 0.23 0.24
0.32 0.31 0.29 0.29 0.31 0.34 0.35 0.38 0.33 0.32 0.32 0.31 0.27 0.28 0.28 0.26 0.24 0.21 0.20 0.21 0.22 0.22
0.31 0.28 0.30 0.31 0.31 0.33 0.33 0.35 0.33 0.31 0.29 0.26 0.26 0.26 0.23 0.23 0.20 0.19 0.19 0.21 0.22 0.23
0.28 0.28 0.29 0.31 0.32 0.33 0.34 0.33 0.32 0.29 0.26 0.24 0.23 0.22 0.21 0.20 0.19 0.18 0.19 0.22 0.24 0.25
0.28 0.28 0.27 0.29 0.32 0.34 0.32 0.32 0.28 0.25 0.25 0.23 0.21 0.21 0.20 0.19 0.18 0.17 0.20 0.22 0.24 0.26
0.29 0.28 0.28 0.29 0.30 0.30 0.29 0.26 0.24 0.23 0.22 0.21 0.21 0.20 0.19 0.19 0.18 0.18 0.20 0.22 0.23 0.26
Wind_Speed
34 37 40 43 45 47 48 49 49 50 51 52 52 51 50 50 49 49 48 47 46 45
38 41 43 45 47 48 49 50 51 52 53 53 52 52 49 48 48 46 44 42 40 41
41 43 45 47 49 50 50 51 52 54 55 53 49 48 45 44 43 43 40 38 38 36
42 44 47 49 50 51 52 54 54 54 53 49 46 44 42 42 41 39 37 36 35 35
43 46 49 50 51 53 55 54 53 54 51 46 45 41 39 37 38 36 35 34 36 38
46 48 50 52 53 54 55 53 53 52 48 40 37 34 33 34 34 33 35 36 38 39
48 50 51 52 54 55 53 52 49 44 37 32 30 32 31 32 34 35 36 38 39 40
49 50 52 54 55 53 50 48 42 36 29 28 29 28 30 33 35 36 38 39 39 39
49 51 53 54 53 50 46 40 34 28 27 26 26 28 31 34 35 37 38 39 39 37
51 52 54 53 51 46 41 32 28 26 24 24 26 29 32 34 35 36 37 37 36 34
52 53 53 51 46 41 32 28 26 23 22 25 27 30 33 34 34 35 36 35 31 31
52 52 51 47 42 35 29 26 23 22 23 25 28 31 32 34 33 34 34 30 29 29
51 50 48 43 37 30 26 22 21 21 24 26 28 30 32 33 32 32 31 27 26 26
49 48 44 38 31 26 22 20 21 23 24 25 27 29 31 31 30 30 29 26 25 25
Wind_Direction
306 307 307 308 308 309 308 308 308 308 308 308 307 305 304 303 302 302 302 301 299 299
309 309 309 309 310 310 309 309 308 309 307 307 305 304 304 304 304 303 303 302 301 301
312 311 311 311 311 311 310 309 309 309 307 306 305 305 304 305 306 305 304 303 304 303
314 314 314 314 312 312 311 310 309 309 307 305 304 304 304 305 307 307 303 304 304 303
316 316 315 315 313 312 311 310 309 310 307 303 302 302 303 305 307 307 306 305 305 303
316 316 316 316 315 315 313 311 310 310 308 302 302 302 305 307 310 309 308 307 306 305
317 318 318 318 318 317 314 313 312 310 308 306 305 306 307 309 311 311 310 309 308 307
318 319 319 319 319 318 315 314 312 310 307 306 308 308 310 312 313 312 312 311 311 309
319 320 320 320 319 318 316 315 313 311 309 310 311 312 314 315 315 315 314 314 314 312
319 320 320 320 319 318 316 313 312 312 312 313 315 318 319 318 319 318 318 318 317 316
319 319 319 320 319 318 315 312 311 311 312 314 317 320 321 322 322 322 322 321 320 320
319 319 320 319 318 316 313 310 310 310 313 316 319 322 324 325 325 325 326 325 325 326
320 320 320 318 316 314 312 309 310 312 315 318 321 324 327 328 328 329 330 328 329 330
320 321 320 318 315 312 310 309 310 313 316 319 323 326 329 331 331 332 332 330 330 333